NT2C Weather Reports


Display with metric or nautical units.
time (UTC)temp
F
wind
direction
speed
MPH
gust
MPH
rain 1hr
in
rain 24hr
in
rain mn
in
humidity
%
barometer
mb
20260509114013 55 195 3.0 10.0 0.00 0.00 0.00 77 1004.5
20260509113509 55 198 4.0 9.0 0.00 0.00 0.00 77 1004.4
20260509113008 54 194 5.0 9.0 0.00 0.00 0.00 77 1004.5
20260509112507 54 224 4.0 11.0 0.00 0.00 0.00 77 1004.5
20260509112010 54 231 5.0 11.0 0.00 0.00 0.00 77 1004.5
20260509111512 53 207 4.0 10.0 0.00 0.00 0.00 77 1004.5
20260509111006 53 162 4.0 10.0 0.00 0.00 0.00 77 1004.4
20260509110507 53 162 3.0 8.0 0.00 0.00 0.00 77 1004.5
20260509110005 53 174 2.0 7.0 0.00 0.00 0.00 77 1004.4
20260509105510 53 207 4.0 8.0 0.00 0.00 0.00 77 1004.3
20260509105004 53 204 4.0 8.0 0.00 0.00 0.00 76 1004.4
20260509104504 53 173 3.0 7.0 0.00 0.00 0.00 76 1004.3
20260509104004 53 219 3.0 8.0 0.00 0.00 0.00 76 1004.4
20260509103503 53 210 3.0 8.0 0.00 0.00 0.00 76 1004.3
20260509103002 53 170 3.0 6.0 0.00 0.00 0.00 75 1004.4
20260509102502 53 203 1.0 5.0 0.00 0.00 0.00 75 1004.4
20260509102002 53 223 2.0 6.0 0.00 0.00 0.00 75 1004.4
20260509101507 53 202 2.0 7.0 0.00 0.00 0.00 75 1004.3
20260509101001 53 204 3.0 7.0 0.00 0.00 0.00 74 1004.3
20260509100600 53 177 2.0 6.0 0.00 0.00 0.00 74 1004.4
20260509100100 53 162 2.0 6.0 0.00 0.00 0.00 74 1004.3
20260509095600 53 203 1.0 8.0 0.00 0.00 0.00 74 1004.4
20260509095100 53 238 3.0 8.0 0.00 0.00 0.00 74 1004.4
20260509094558 53 191 3.0 7.0 0.00 0.00 0.00 74 1004.3
20260509094057 53 176 3.0 7.0 0.00 0.00 0.00 73 1004.5
20260509093556 53 192 3.0 7.0 0.00 0.00 0.00 73 1004.5
20260509093059 53 207 1.0 5.0 0.00 0.00 0.00 72 1004.5
20260509092554 54 226 1.0 5.0 0.00 0.00 0.00 72 1004.4
20260509092054 54 228 1.0 5.0 0.00 0.00 0.00 71 1004.3
20260509091554 54 218 1.0 5.0 0.00 0.00 0.00 71 1004.4
20260509091053 54 212 1.0 5.0 0.00 0.00 0.00 71 1004.3
20260509090554 54 221 2.0 5.0 0.00 0.00 0.00 71 1004.3
20260509090057 54 170 2.0 5.0 0.00 0.00 0.00 70 1004.5
20260509085551 55 191 1.0 4.0 0.00 0.00 0.00 70 1004.5
20260509085051 55 213 1.0 4.0 0.00 0.00 0.00 70 1004.4
20260509084553 55 220 1.0 5.0 0.00 0.00 0.00 69 1004.3
20260509084052 55 233 1.0 6.0 0.00 0.00 0.00 69 1004.4
20260509083553 55 228 2.0 6.0 0.00 0.00 0.00 69 1004.5
20260509083048 55 224 2.0 6.0 0.00 0.00 0.00 69 1004.5
20260509082548 55 210 2.0 5.0 0.00 0.00 0.00 69 1004.6
20260509082047 55 236 2.0 5.0 0.00 0.00 0.00 68 1004.6
20260509081552 55 227 2.0 6.0 0.00 0.00 0.00 68 1004.7
20260509081046 55 229 3.0 6.0 0.00 0.00 0.00 68 1004.8
20260509080545 56 226 3.0 6.0 0.00 0.00 0.00 68 1004.8
20260509080044 56 228 3.0 8.0 0.00 0.00 0.00 68 1004.8
20260509075544 56 236 1.0 5.0 0.00 0.00 0.00 67 1004.8
20260509075044 56 237 1.0 8.0 0.00 0.00 0.00 67 1004.8
20260509074543 56 242 4.0 8.0 0.00 0.00 0.00 67 1004.9
20260509074042 56 240 1.0 6.0 0.00 0.00 0.00 67 1004.9
20260509073542 56 227 2.0 5.0 0.00 0.00 0.00 67 1005.0
20260509073048 56 229 2.0 8.0 0.00 0.00 0.00 67 1005.1
20260509072541 56 209 3.0 7.0 0.00 0.00 0.00 67 1005.1
20260509072041 56 223 3.0 10.0 0.00 0.00 0.00 67 1005.1
20260509071549 55 178 4.0 8.0 0.00 0.00 0.00 67 1005.2
20260509071042 55 207 2.0 8.0 0.00 0.00 0.00 67 1005.1
20260509070543 55 191 3.0 7.0 0.00 0.00 0.00 66 1005.2
20260509070045 55 219 2.0 6.0 0.00 0.00 0.00 67 1005.2
20260509065538 55 228 2.0 6.0 0.00 0.00 0.00 66 1005.3
20260509065040 55 239 2.0 8.0 0.00 0.00 0.00 66 1005.3
20260509064538 55 221 2.0 6.0 0.00 0.00 0.00 66 1005.5
20260509064038 55 245 2.0 6.0 0.00 0.00 0.00 66 1005.4
20260509063537 55 231 1.0 4.0 0.00 0.00 0.00 66 1005.5
20260509063057 55 191 2.0 5.0 0.00 0.00 0.00 66 1005.5
20260509062537 55 208 2.0 8.0 0.00 0.00 0.00 66 1005.4
20260509062036 55 193 3.0 8.0 0.00 0.00 0.00 66 1005.5
20260509061557 55 147 2.0 7.0 0.00 0.00 0.00 65 1005.5
20260509061033 55 218 3.0 7.0 0.00 0.00 0.00 65 1005.5
20260509060537 55 193 2.0 5.0 0.00 0.00 0.00 65 1005.5
20260509060135 55 206 3.0 6.0 0.00 0.00 0.00 64 1005.5
20260509055532 55 194 2.0 4.0 0.00 0.00 0.00 64 1005.3
20260509055031 55 213 1.0 5.0 0.00 0.00 0.00 64 1005.3
20260509054531 55 197 1.0 5.0 0.00 0.00 0.00 63 1005.2
20260509054030 55 220 1.0 5.0 0.00 0.00 0.00 63 1005.3
20260509053530 55 176 2.0 5.0 0.00 0.00 0.00 63 1005.2
20260509053032 56 178 2.0 8.0 0.00 0.00 0.00 62 1005.2
20260509052530 56 222 3.0 8.0 0.00 0.00 0.00 62 1005.2
20260509052027 56 224 2.0 8.0 0.00 0.00 0.00 62 1005.2
20260509051528 56 169 2.0 6.0 0.00 0.00 0.00 61 1005.3
20260509051026 56 196 1.0 7.0 0.00 0.00 0.00 61 1005.3
20260509050526 56 199 2.0 6.0 0.00 0.00 0.00 61 1005.3
20260509050023 56 229 1.0 5.0 0.00 0.00 0.00 61 1005.1
20260509045522 56 205 2.0 6.0 0.00 0.00 0.00 60 1005.1
20260509045022 56 224 2.0 6.0 0.00 0.00 0.00 60 1005.0
20260509044524 56 212 1.0 5.0 0.00 0.00 0.00 60 1005.0
20260509044020 56 212 2.0 5.0 0.00 0.00 0.00 60 1005.1
20260509043519 57 187 2.0 4.0 0.00 0.00 0.00 59 1005.1
20260509043019 57 188 1.0 5.0 0.00 0.00 0.00 59 1005.1
20260509042519 57 205 1.0 4.0 0.00 0.00 0.00 59 1005.2
20260509042019 57 210 1.0 5.0 0.00 0.00 0.00 58 1005.1
20260509041616 57 169 2.0 6.0 0.00 0.00 0.00 58 1005.1
20260509041014 57 202 2.0 6.0 0.00 0.00 0.00 58 1005.3
20260509040512 57 207 1.0 6.0 0.00 0.00 0.00 57 1005.4
20260509040012 58 184 1.0 7.0 0.00 0.00 0.00 57 1005.4
20260509035514 58 186 4.0 7.0 0.00 0.00 0.00 57 1005.5
20260509035012 58 199 2.0 5.0 0.00 0.00 0.00 57 1005.6
20260509034512 58 155 2.0 6.0 0.00 0.00 0.00 57 1005.6
20260509034010 58 200 1.0 6.0 0.00 0.00 0.00 56 1005.6
20260509033514 58 207 1.0 4.0 0.00 0.00 0.00 56 1005.7
20260509033011 58 195 1.0 5.0 0.00 0.00 0.00 56 1005.7
20260509032510 58 191 1.0 5.0 0.00 0.00 0.00 56 1005.6
20260509032014 58 186 1.0 5.0 0.00 0.00 0.00 56 1005.7
20260509031509 58 216 1.0 5.0 0.00 0.00 0.00 56 1005.6
20260509031009 58 210 0.0 4.0 0.00 0.00 0.00 56 1005.7
20260509030510 59 184 1.0 5.0 0.00 0.00 0.00 56 1005.6
20260509030009 59 217 1.0 5.0 0.00 0.00 0.00 55 1005.6
20260509025508 59 163 0.0 4.0 0.00 0.00 0.00 55 1005.6
20260509025009 59 176 1.0 4.0 0.00 0.00 0.00 55 1005.7
20260509024512 59 205 0.0 4.0 0.00 0.00 0.00 55 1005.8
20260509024010 59 202 0.0 4.0 0.00 0.00 0.00 55 1005.8
20260509023508 59 212 1.0 5.0 0.00 0.00 0.00 55 1005.7
20260509023008 59 178 0.0 5.0 0.00 0.00 0.00 55 1005.6
20260509022508 59 217 1.0 4.0 0.00 0.00 0.00 54 1005.6
20260509022009 60 164 0.0 3.0 0.00 0.00 0.00 54 1005.5
20260509021508 60 165 1.0 6.0 0.00 0.00 0.00 53 1005.5
20260509021007 60 198 1.0 6.0 0.00 0.00 0.00 53 1005.5
20260509020508 60 146 2.0 8.0 0.00 0.00 0.00 53 1005.4
20260509020006 60 190 3.0 8.0 0.00 0.00 0.00 53 1005.4
20260509015508 60 198 1.0 5.0 0.00 0.00 0.00 53 1005.4
20260509015107 60 174 0.0 3.0 0.00 0.00 0.00 53 1005.3
20260509014520 60 189 0.0 4.0 0.00 0.00 0.00 53 1005.3
20260509014006 61 196 0.0 4.0 0.00 0.00 0.00 52 1005.2
20260509013505 61 193 0.0 3.0 0.00 0.00 0.00 52 1005.1
20260509013005 61 204 0.0 2.0 0.00 0.00 0.00 52 1005.2
20260509012505 61 166 0.0 3.0 0.00 0.00 0.00 51 1005.1
20260509012005 61 168 1.0 3.0 0.00 0.00 0.00 51 1005.1
20260509011505 61 179 0.0 2.0 0.00 0.00 0.00 51 1004.9
20260509011004 62 162 0.0 2.0 0.00 0.00 0.00 50 1005.0
20260509010506 62 200 0.0 3.0 0.00 0.00 0.00 50 1004.8
20260509010004 63 194 0.0 3.0 0.00 0.00 0.00 49 1004.8
20260509005504 63 206 0.0 3.0 0.00 0.00 0.00 48 1005.0
20260509005004 63 210 1.0 3.0 0.00 0.00 0.00 48 1004.8
20260509004503 64 198 1.0 4.0 0.00 0.00 0.00 47 1004.9
20260509004004 64 176 1.0 6.0 0.00 0.00 0.00 47 1004.8
20260509003507 64 205 1.0 6.0 0.00 0.00 0.00 46 1004.9
20260509003005 65 210 2.0 6.0 0.00 0.00 0.00 46 1004.8
20260509002504 65 184 1.0 6.0 0.00 0.00 0.00 45 1004.8
20260509002003 65 216 0.0 6.0 0.00 0.00 0.00 45 1004.9
20260509001503 66 207 1.0 5.0 0.00 0.00 0.00 44 1004.8
20260509001002 66 223 2.0 5.0 0.00 0.00 0.00 44 1004.8
20260509000502 66 218 1.0 6.0 0.00 0.00 0.00 44 1004.7
20260509000003 67 212 1.0 8.0 0.00 0.00 0.00 43 1004.7
20260508235502 67 213 2.0 8.0 0.00 0.00 0.00 42 1004.7
20260508235002 68 211 2.0 7.0 0.00 0.00 0.00 42 1004.6
20260508234501 68 208 2.0 7.0 0.00 0.00 0.00 42 1004.5
20260508234002 69 175 3.0 10.0 0.00 0.00 0.00 41 1004.6
20260508233502 69 190 4.0 10.0 0.00 0.00 0.00 40 1004.5
20260508233004 69 243 3.0 8.0 0.00 0.00 0.00 40 1004.5
20260508232501 70 219 3.0 10.0 0.00 0.00 0.00 40 1004.4
20260508232002 70 203 5.0 10.0 0.00 0.00 0.00 39 1004.3
20260508231502 70 228 1.0 6.0 0.00 0.00 0.00 40 1004.3
20260508231101 70 221 2.0 8.0 0.00 0.00 0.00 40 1004.2
20260508230600 70 223 3.0 12.0 0.00 0.00 0.00 40 1004.2
20260508225600 70 187 4.0 9.0 0.00 0.00 0.00 39 1004.2
20260508225100 70 221 4.0 10.0 0.00 0.00 0.00 39 1004.2
20260508224602 71 217 4.0 10.0 0.00 0.00 0.00 39 1004.2
20260508224100 71 223 5.0 10.0 0.00 0.00 0.00 39 1004.1
20260508223559 71 226 4.0 11.0 0.00 0.00 0.00 39 1004.1
20260508223059 71 244 6.0 11.0 0.00 0.00 0.00 38 1004.0
20260508222558 71 203 5.0 11.0 0.00 0.00 0.00 39 1004.1
20260508222058 71 240 4.0 15.0 0.00 0.00 0.00 39 1004.1
20260508221600 71 212 4.0 15.0 0.00 0.00 0.00 38 1004.3
20260508221058 71 177 4.0 14.0 0.00 0.00 0.00 38 1004.2
20260508220556 71 231 7.0 14.0 0.00 0.00 0.00 38 1004.3
20260508220057 71 179 5.0 11.0 0.00 0.00 0.00 38 1004.2
20260508215557 71 210 4.0 10.0 0.00 0.00 0.00 37 1004.2
20260508215057 71 208 4.0 10.0 0.00 0.00 0.00 38 1004.2
20260508214557 71 208 2.0 14.0 0.00 0.00 0.00 38 1004.1
20260508214056 71 202 6.0 15.0 0.00 0.00 0.00 37 1004.2
20260508213556 71 262 6.0 15.0 0.00 0.00 0.00 37 1004.2
20260508213055 71 240 7.0 14.0 0.00 0.00 0.00 37 1004.2
20260508212555 71 228 7.0 14.0 0.00 0.00 0.00 37 1004.4
20260508212056 72 282 6.0 12.0 0.00 0.00 0.00 37 1004.3
20260508211554 72 224 3.0 12.0 0.00 0.00 0.00 37 1004.4
20260508211055 72 274 6.0 12.0 0.00 0.00 0.00 35 1004.5
20260508210556 72 216 2.0 15.0 0.00 0.00 0.00 38 1004.5
20260508210052 72 233 5.0 17.0 0.00 0.00 0.00 37 1004.4
20260508205554 72 255 7.0 14.0 0.00 0.00 0.00 36 1004.4
20260508205051 71 217 2.0 11.0 0.00 0.00 0.00 38 1004.4
20260508204551 71 225 5.0 17.0 0.00 0.00 0.00 37 1004.6
20260508204050 71 224 4.0 8.0 0.00 0.00 0.00 37 1004.5
20260508203550 71 206 2.0 7.0 0.00 0.00 0.00 39 1004.6
20260508203058 70 223 1.0 8.0 0.00 0.00 0.00 38 1004.8
20260508202550 70 236 2.0 10.0 0.00 0.00 0.00 37 1004.9
20260508202050 71 219 2.0 6.0 0.00 0.00 0.00 37 1005.0
20260508201558 71 300 2.0 13.0 0.00 0.00 0.00 38 1005.0
20260508201048 71 235 7.0 13.0 0.00 0.00 0.00 38 1005.0
20260508200548 71 214 4.0 13.0 0.00 0.00 0.00 37 1005.1
20260508200148 71 135 6.0 13.0 0.00 0.00 0.00 37 1005.0
20260508195545 71 217 2.0 13.0 0.00 0.00 0.00 40 1005.1
20260508195050 70 230 6.0 14.0 0.00 0.00 0.00 37 1005.3
20260508194546 70 170 7.0 16.0 0.00 0.00 0.00 38 1005.4
20260508194045 70 222 9.0 16.0 0.00 0.00 0.00 38 1005.3
20260508193545 70 210 5.0 12.0 0.00 0.00 0.00 40 1005.4
20260508193046 69 202 6.0 14.0 0.00 0.00 0.00 38 1005.4
20260508192545 69 267 7.0 20.0 0.00 0.00 0.00 38 1005.6
20260508192045 69 229 13.0 20.0 0.00 0.00 0.00 38 1005.7
20260508191544 69 264 6.0 13.0 0.00 0.00 0.00 39 1005.7
20260508191044 69 233 3.0 13.0 0.00 0.00 0.00 39 1005.8
20260508190544 69 300 5.0 10.0 0.00 0.00 0.00 39 1005.9
20260508190044 69 233 4.0 11.0 0.00 0.00 0.00 38 1006.0
20260508185548 69 229 5.0 11.0 0.00 0.02 0.00 39 1006.1
20260508185043 69 238 3.0 10.0 0.00 0.02 0.00 39 1006.1
20260508184543 70 224 4.0 10.0 0.00 0.02 0.00 38 1006.3
20260508184045 69 299 4.0 12.0 0.00 0.02 0.00 41 1006.3
20260508183541 69 179 5.0 12.0 0.00 0.02 0.00 38 1006.3
20260508183043 70 217 5.0 12.0 0.00 0.02 0.00 39 1006.4
20260508182542 70 303 3.0 8.0 0.00 0.02 0.00 39 1006.5
20260508182040 69 224 3.0 11.0 0.00 0.02 0.00 41 1006.4
20260508181553 69 203 3.0 18.0 0.00 0.02 0.00 42 1006.5
20260508181039 68 239 8.0 18.0 0.00 0.02 0.00 39 1006.7
20260508180539 68 207 12.0 17.0 0.00 0.02 0.00 39 1006.8
20260508180039 68 231 5.0 13.0 0.00 0.02 0.00 40 1006.8
20260508175539 69 252 6.0 12.0 0.00 0.02 0.00 40 1007.0
20260508175037 68 240 4.0 15.0 0.00 0.02 0.00 41 1007.0
20260508174549 68 231 7.0 16.0 0.00 0.02 0.00 41 1006.9
20260508174038 68 167 7.0 16.0 0.00 0.02 0.00 40 1007.0
20260508173534 68 303 3.0 11.0 0.00 0.02 0.00 41 1007.0
20260508173041 67 259 3.0 13.0 0.00 0.02 0.00 40 1007.0
20260508172533 68 233 5.0 13.0 0.00 0.02 0.00 42 1007.0
20260508172032 67 282 6.0 12.0 0.00 0.02 0.00 41 1007.0
20260508171532 67 262 1.0 13.0 0.00 0.02 0.00 44 1007.1
20260508171031 67 218 7.0 13.0 0.00 0.02 0.00 41 1007.2
20260508170530 66 180 3.0 6.0 0.00 0.02 0.00 42 1007.3
20260508170028 66 273 1.0 10.0 0.00 0.02 0.00 41 1007.4
20260508165526 66 240 3.0 11.0 0.00 0.02 0.00 42 1007.6
20260508165025 67 218 5.0 11.0 0.00 0.02 0.00 44 1007.6
20260508164526 66 217 5.0 11.0 0.00 0.02 0.00 43 1007.5
20260508164025 66 278 2.0 12.0 0.00 0.02 0.00 44 1007.8
20260508163525 66 338 4.0 17.0 0.00 0.02 0.00 43 1008.0
20260508163024 66 199 5.0 17.0 0.00 0.02 0.00 44 1008.0
20260508162526 66 248 2.0 9.0 0.00 0.02 0.00 44 1008.1
20260508162025 66 309 3.0 7.0 0.00 0.02 0.00 44 1008.1
20260508161523 66 323 1.0 7.0 0.00 0.02 0.00 44 1008.2
20260508161023 66 260 2.0 7.0 0.00 0.02 0.00 45 1008.2
20260508160521 65 240 3.0 7.0 0.00 0.02 0.00 43 1008.3
20260508160021 65 253 0.0 13.0 0.00 0.02 0.00 43 1008.3
20260508155521 64 249 6.0 13.0 0.00 0.02 0.00 43 1008.3
20260508155021 65 233 5.0 12.0 0.00 0.02 0.00 45 1008.3
20260508154520 65 227 2.0 7.0 0.00 0.02 0.00 46 1008.4
20260508154019 65 240 1.0 6.0 0.00 0.02 0.00 47 1008.4
20260508153520 64 169 1.0 11.0 0.00 0.02 0.00 45 1008.5
20260508153020 64 222 3.0 9.0 0.00 0.02 0.00 47 1008.5
20260508152522 64 184 4.0 9.0 0.00 0.02 0.00 44 1008.6
20260508152017 64 216 1.0 9.0 0.00 0.02 0.00 48 1008.6
20260508151526 63 168 3.0 9.0 0.00 0.02 0.00 45 1008.7
20260508151018 63 245 1.0 10.0 0.00 0.02 0.00 43 1008.7
20260508150515 63 237 3.0 10.0 0.00 0.02 0.00 42 1008.7
20260508150026 63 200 2.0 7.0 0.00 0.02 0.00 44 1008.8
20260508145514 62 264 0.0 8.0 0.00 0.02 0.00 43 1008.9
20260508145013 62 271 2.0 8.0 0.00 0.02 0.00 42 1008.9
20260508144513 62 101 1.0 7.0 0.00 0.02 0.00 42 1009.1
20260508144013 62 236 1.0 7.0 0.00 0.02 0.00 45 1009.1
20260508143514 62 217 1.0 8.0 0.00 0.02 0.00 46 1009.0
20260508143010 62 232 2.0 8.0 0.00 0.02 0.00 47 1009.0
20260508142510 62 307 0.0 4.0 0.00 0.02 0.00 46 1009.0
20260508142109 61 226 0.0 5.0 0.00 0.02 0.00 49 1009.0
20260508141509 60 291 1.0 4.0 0.00 0.02 0.00 50 1009.1
20260508141007 60 307 0.0 5.0 0.00 0.02 0.00 49 1009.1
20260508140507 60 201 1.0 5.0 0.00 0.02 0.00 53 1009.2
20260508140006 60 251 0.0 4.0 0.00 0.02 0.00 54 1009.2
20260508135506 59 284 1.0 4.0 0.00 0.02 0.00 55 1009.2
20260508135004 59 293 0.0 7.0 0.00 0.02 0.00 56 1009.2
20260508134504 58 272 2.0 7.0 0.00 0.02 0.00 56 1009.4
20260508134003 58 233 0.0 4.0 0.00 0.02 0.00 58 1009.3
20260508133505 57 229 0.0 5.0 0.00 0.02 0.00 61 1009.4
20260508133004 58 236 2.0 4.0 0.00 0.02 0.00 60 1009.4
20260508132503 57 271 0.0 3.0 0.00 0.02 0.00 64 1009.4
20260508132100 57 248 1.0 4.0 0.00 0.02 0.00 63 1009.4
20260508131558 56 217 0.0 4.0 0.00 0.02 0.00 65 1009.3
20260508131058 55 266 0.0 4.0 0.00 0.02 0.00 64 1009.4
20260508130555 55 256 0.0 2.0 0.00 0.02 0.00 65 1009.4
20260508130054 55 304 0.0 2.0 0.00 0.02 0.00 67 1009.4
20260508125553 54 230 0.0 2.0 0.00 0.02 0.00 68 1009.3
20260508125052 54 227 0.0 2.0 0.00 0.02 0.00 69 1009.4
20260508124558 53 235 0.0 5.0 0.00 0.02 0.00 69 1009.4
20260508124050 53 281 1.0 5.0 0.00 0.02 0.00 69 1009.4
20260508123548 53 257 0.0 2.0 0.00 0.02 0.00 73 1009.4
20260508123050 52 205 0.0 2.0 0.00 0.02 0.00 74 1009.3
20260508122544 52 314 0.0 2.0 0.00 0.02 0.00 75 1009.2
20260508122043 52 185 0.0 1.0 0.00 0.02 0.00 77 1008.9
20260508121542 51 226 0.0 2.0 0.00 0.02 0.00 79 1009.0
20260508121040 50 232 0.0 2.0 0.00 0.02 0.00 79 1009.1
20260508120538 50 229 0.0 2.0 0.00 0.02 0.00 80 1009.0
20260508120037 49 233 0.0 2.0 0.00 0.02 0.00 82 1008.8
20260508115536 48 231 0.0 2.0 0.00 0.02 0.00 84 1008.9
20260508115033 47 225 0.0 1.0 0.00 0.02 0.00 87 1008.8
20260508114536 47 273 0.0 1.0 0.00 0.02 0.00 89 1008.7